Mount Carmel, IL

1:39 PM CST on December 08, 2019 (GMT -0600)
Mount Carmel Municipal

Weather History for KAJG - November, 2019

Change the Weather History Date:

Tuesday, November 12, 2019

  Actual Average (KLWV) Record (KLWV)
Temperature  
Mean Temperature 12 °F -  
Max Temperature 19 °F 53 °F 76 °F (2010)
Min Temperature 5 °F 34 °F 6 °F (2019)
Degree Days  
Heating Degree Days 53    
Moisture  
Dew Point 4 °F    
Average Humidity 66    
Maximum Humidity 89    
Minimum Humidity 49    
Precipitation  
Precipitation 0.00 in - - ()
Sea Level Pressure  
Sea Level Pressure 30.51 in    
Wind  
Wind Speed 13 mph (NW)    
Max Wind Speed 18 mph    
Max Gust Speed 24 mph    
Visibility 10 miles    
Events      
Averages and records for this station are not official NWS values.
T = Trace of Precipitation, MM = Missing Value Source: NWS Daily Summary

Daily Weather History Graph

Daily Weather History Graph

Search for Another Location

Airport or City:

Astronomy

Nov. 12, 2019 Rise Set
Actual Time 6:29 AM CST 4:40 PM CST
Civil Twilight 6:01 AM CST 5:08 PM CST
Nautical Twilight 5:29 AM CST 5:40 PM CST
Astronomical Twilight 4:58 AM CST 6:11 PM CST
Moon 5:06 PM CST (11/12) 6:21 AM CST (11/12)
Length of Visible Light 11h 07m
Length of Day
10h 10m
Full, 100% of the Moon is Illuminated
Nov 12
Full
Nov 19
Last Quarter
Nov 26
New
Dec 4
First Quarter
Dec 11
Full

Hourly Weather History & Observations

Time (CST) Temp. Windchill Dew Point Humidity Pressure Visibility Wind Dir Wind Speed Gust Speed Precip Events Conditions
12:15 AM 19.0 °F 5.0 °F 7.7 °F 61% 30.42 in 10.0 mi NNW 15.0 mph - N/A   Scattered Clouds
12:35 AM 18.1 °F 2.4 °F 8.1 °F 65% 30.42 in 10.0 mi NNW 18.4 mph 24.2 mph N/A   Clear
12:55 AM 17.6 °F 2.7 °F 7.7 °F 65% 30.43 in 10.0 mi NNW 16.1 mph 23.0 mph N/A   Clear
1:15 AM 16.7 °F 1.5 °F 7.3 °F 67% 30.42 in 10.0 mi NNW 16.1 mph 19.6 mph N/A   Clear
1:35 AM 16.3 °F 2.1 °F 6.8 °F 66% 30.43 in 10.0 mi NNW 13.8 mph 19.6 mph N/A   Clear
1:55 AM 15.8 °F 1.4 °F 6.6 °F 67% 30.44 in 10.0 mi NNW 13.8 mph - N/A   Clear
2:15 AM 15.4 °F -0.1 °F 6.4 °F 68% 30.44 in 10.0 mi NNW 16.1 mph 20.7 mph N/A   Clear
2:35 AM 15.3 °F -0.4 °F 5.9 °F 67% 30.45 in 10.0 mi NNW 16.1 mph - N/A   Clear
2:55 AM 14.7 °F -0.5 °F 5.9 °F 68% 30.46 in 10.0 mi NNW 15.0 mph - N/A   Clear
3:15 AM 14.7 °F -0.5 °F 5.7 °F 68% 30.46 in 10.0 mi NNW 15.0 mph - N/A   Clear
3:35 AM 14.4 °F -1.5 °F 5.5 °F 68% 30.46 in 10.0 mi NNW 16.1 mph 20.7 mph N/A   Clear
3:55 AM 13.8 °F 0.2 °F 5.5 °F 70% 30.47 in 10.0 mi NNW 11.5 mph 19.6 mph N/A   Clear
4:15 AM 13.5 °F -0.2 °F 5.4 °F 70% 30.48 in 10.0 mi NNW 11.5 mph - N/A   Clear
4:35 AM 13.3 °F 0.3 °F 4.8 °F 69% 30.49 in 10.0 mi NNW 10.4 mph - N/A   Clear
4:55 AM 12.4 °F -0.8 °F 4.5 °F 71% 30.49 in 10.0 mi NW 10.4 mph - N/A   Clear
5:15 AM 11.8 °F -1.5 °F 4.1 °F 71% 30.49 in 10.0 mi NW 10.4 mph - N/A   Clear
5:35 AM 11.1 °F 0.4 °F 3.7 °F 72% 30.50 in 10.0 mi NW 6.9 mph - N/A   Clear
5:55 AM 10.9 °F 0.2 °F 3.0 °F 70% 30.50 in 10.0 mi NW 6.9 mph - N/A   Clear
6:15 AM 10.6 °F -2.2 °F 2.8 °F 71% 30.51 in 10.0 mi NW 9.2 mph - N/A   Clear
6:35 AM 10.8 °F -3.6 °F 2.7 °F 70% 30.51 in 10.0 mi NW 11.5 mph 16.1 mph N/A   Clear
6:55 AM 10.8 °F -2.0 °F 2.3 °F 69% 30.52 in 10.0 mi NNW 9.2 mph - N/A   Clear
7:15 AM 11.3 °F -2.9 °F 2.7 °F 68% 30.53 in 10.0 mi NNW 11.5 mph - N/A   Clear
7:35 AM 11.8 °F -1.5 °F 2.8 °F 67% 30.54 in 10.0 mi NNW 10.4 mph - N/A   Clear
7:55 AM 12.2 °F -2.5 °F 2.8 °F 66% 30.55 in 10.0 mi NNW 12.7 mph - N/A   Clear
8:15 AM 12.7 °F -2.5 °F 2.8 °F 65% 30.55 in 10.0 mi NNW 13.8 mph 19.6 mph N/A   Clear
8:35 AM 13.1 °F -2.0 °F 3.0 °F 64% 30.56 in 10.0 mi NNW 13.8 mph - N/A   Clear
8:55 AM 13.6 °F -1.3 °F 3.2 °F 63% 30.57 in 10.0 mi NW 13.8 mph - N/A   Clear
9:15 AM 14.0 °F -1.4 °F 3.0 °F 62% 30.56 in 10.0 mi NW 15.0 mph 19.6 mph N/A   Clear
9:35 AM 14.5 °F 0.5 °F 2.7 °F 59% 30.57 in 10.0 mi NNW 12.7 mph - N/A   Clear
9:55 AM 14.9 °F 1.6 °F 3.2 °F 60% 30.57 in 10.0 mi NW 11.5 mph - N/A   Clear
10:15 AM 15.3 °F 2.8 °F 3.4 °F 59% 30.57 in 10.0 mi NW 10.4 mph - N/A   Clear
10:35 AM 15.8 °F 2.7 °F 3.6 °F 59% 30.57 in 10.0 mi NNW 11.5 mph - N/A   Clear
10:55 AM 16.3 °F 2.7 °F 3.4 °F 57% 30.56 in 10.0 mi NW 12.7 mph - N/A   Clear
11:15 AM 17.1 °F 4.3 °F 4.3 °F 57% 30.56 in 10.0 mi NW 11.5 mph - N/A   Clear
11:35 AM 17.2 °F 4.5 °F 3.2 °F 54% 30.55 in 10.0 mi NW 11.5 mph - N/A   Clear
11:55 AM 17.6 °F 5.0 °F 3.4 °F 54% 30.55 in 10.0 mi NW 11.5 mph 17.3 mph N/A   Clear
12:15 PM 18.1 °F 6.3 °F 3.2 °F 52% 30.55 in 10.0 mi NNW 10.4 mph - N/A   Clear
12:35 PM 18.5 °F 6.1 °F 2.7 °F 50% 30.54 in 10.0 mi NNW 11.5 mph - N/A   Clear
12:55 PM 18.9 °F 5.9 °F 3.7 °F 52% 30.53 in 10.0 mi NNW 12.7 mph - N/A   Clear
1:15 PM 18.5 °F 4.9 °F 2.8 °F 51% 30.53 in 10.0 mi NW 13.8 mph 18.4 mph N/A   Clear
1:35 PM 18.7 °F 5.7 °F 2.5 °F 49% 30.52 in 10.0 mi NW 12.7 mph - N/A   Clear
1:55 PM 18.9 °F 8.0 °F 2.5 °F 49% 30.52 in 10.0 mi NNW 9.2 mph - N/A   Clear
2:15 PM 18.9 °F 7.2 °F 3.0 °F 50% 30.52 in 10.0 mi NW 10.4 mph - N/A   Clear
2:35 PM 18.7 °F 6.3 °F 2.7 °F 50% 30.51 in 10.0 mi NW 11.5 mph - N/A   Clear
2:55 PM 18.5 °F 6.8 °F 3.0 °F 51% 30.52 in 10.0 mi NW 10.4 mph - N/A   Clear
3:15 PM 18.5 °F 7.5 °F 2.7 °F 50% 30.51 in 10.0 mi NW 9.2 mph - N/A   Clear
3:35 PM 18.0 °F 6.9 °F 3.2 °F 53% 30.52 in 10.0 mi NW 9.2 mph - N/A   Clear
3:55 PM 17.6 °F 7.3 °F 3.0 °F 53% 30.52 in 10.0 mi NNW 8.1 mph - N/A   Clear
4:15 PM 16.9 °F 5.5 °F 2.8 °F 54% 30.52 in 10.0 mi NNW 9.2 mph - N/A   Clear
4:35 PM 15.8 °F 6.1 °F 2.8 °F 57% 30.52 in 10.0 mi NNW 6.9 mph - N/A   Clear
4:55 PM 14.5 °F - 2.3 °F 58% 30.52 in 10.0 mi North - - N/A   Clear
5:15 PM 13.1 °F - 2.3 °F 62% 30.53 in 10.0 mi North - - N/A   Clear
5:35 PM 12.2 °F 1.7 °F 2.1 °F 64% 30.53 in 10.0 mi NNW 6.9 mph - N/A   Clear
5:55 PM 12.2 °F 2.9 °F 2.1 °F 64% 30.53 in 10.0 mi NNW 5.8 mph - N/A   Clear
6:55 PM 11.1 °F - 2.3 °F 68% 30.53 in 10.0 mi North - - N/A   Clear
7:15 PM 9.3 °F - 2.8 °F 75% 30.53 in 10.0 mi North - - N/A   Clear
7:35 PM 10.0 °F - 2.5 °F 72% 30.52 in 10.0 mi North - - N/A   Clear
8:15 PM 8.6 °F - 4.5 °F 83% 30.50 in 10.0 mi North - - N/A   Clear
8:35 PM 7.0 °F - 3.0 °F 84% 30.50 in 10.0 mi Calm Calm - N/A   Clear
8:55 PM 7.7 °F - 3.7 °F 84% 30.50 in 10.0 mi Calm Calm - N/A   Clear
9:15 PM 6.8 °F - 3.2 °F 85% 30.50 in 10.0 mi North - - N/A   Clear
9:35 PM 6.6 °F - 3.9 °F 89% 30.50 in 10.0 mi North - - N/A   Clear
9:55 PM 6.4 °F - 3.2 °F 87% 30.50 in 10.0 mi North - - N/A   Clear
10:15 PM 6.6 °F - 3.4 °F 87% 30.49 in 10.0 mi North - - N/A   Clear
10:35 PM 6.4 °F - 3.6 °F 88% 30.48 in 10.0 mi North - - N/A   Clear
10:55 PM 6.8 °F - 4.1 °F 89% 30.48 in 10.0 mi North - - N/A   Clear
11:15 PM 5.9 °F - 3.2 °F 89% 30.48 in 10.0 mi North - - N/A   Clear
11:35 PM 5.4 °F - 2.1 °F 86% 30.47 in 10.0 mi North - - N/A   Clear
11:55 PM 5.9 °F - 2.8 °F 87% 30.46 in 10.0 mi Calm Calm - N/A   Clear